KBRL

Southeast Iowa Regional Airport

Airport
ICAO code
KBRL
Summary
ICAO Region
NAM
ICAO Territory
Location

Burlington, Iowa,

Coordinates
40° 46' 46" N , 91° 7' 24" W
KCC
Airport CFIT
Altimeter Temperature Error Correction
Metar
KBRL 240553Z AUTO 20003KT 7SM CLR 19/18 A3008 RMK AO2 SLP179 T01940183 10272 20194 402890156 50001

Description

Southeast Iowa Regional Airport is a public use airport located 4 km southwest of the central business district of Burlington, a city in Des Moines County, Iowa.

Climatology

Humid continental climate (Köppen climate classification Dfa) - characterized by four seasons: cold, windy, snowy winters, mild springs, hot, humid summers, and crisp and relatively short autumns. Precipitation reaches its lowest in January and February and peaks in summer and latter half of spring.

Airport map

Aerial View

SKYbrary Partners:

Safety knowledge contributed by: